[[{"header":{"parameterUnit":"m.s-1","parameterCategory":1,"la1":30.2991,"la2":30.254,"lo1":-89.0895,"lo2":-89.0444,"dy":0.0017,"dx":0.0017,"nx":28,"ny":28,"refTime":"2025-03-08T09:00:00:Z","depth":0,"parameterNumber":2,"parameterNumberName":"U-component_of_WINDS"},"data":[0,0,0,0,0,0,0,0,0,0,0,0,0,0,0,0,0,0,0,0,0,0,0,0,0,0,0,0,0,0,0,0,0,0,0,0,0,0,0,0,0,0,0,0,0,0,0,0,0,0,0,0,0,0,0,0,0,0,-2.196,-2.196,0,-2.1972,-2.1972,-2.1972,-2.1902,-2.19,-2.1898,-2.1897,-2.1908,-2.191,-2.1912,0,0,0,0,0,0,0,0,0,0,0,0,0,-2.1878,-2.188,-2.196,-2.196,-2.1961,-2.1972,-2.1972,-2.1972,-2.1903,-2.19,-2.1898,-2.1896,-2.1907,-2.191,-2.1913,0,0,0,0,0,0,0,0,0,0,0,0,0,-2.1904,-2.188,-2.196,-2.1927,-2.1924,-2.1972,-2.1972,-2.1972,-2.1903,-2.19,-2.1897,-2.1895,-2.1907,-2.191,-2.1913,-2.1993,0,0,-2.1923,-2.1924,0,0,0,0,0,0,0,0,-2.1903,-2.1907,-2.1932,-2.193,-2.1926,-2.1933,-2.1947,-2.1979,-2.1904,-2.1911,-2.1897,-2.1893,-2.1919,-2.1921,-2.193,-2.1993,-2.1994,-2.1923,-2.1925,-2.1927,-2.1927,0,0,0,0,0,0,0,-2.1901,-2.1906,-2.1965,-2.1932,-2.1929,-2.1912,-2.1912,-2.1953,-2.1932,-2.191,-2.1905,-2.1908,-2.1917,-2.1927,-2.1929,-2.1994,-2.1923,-2.1926,-2.1928,-2.1929,-2.2125,-2.2128,0,0,0,0,0,0,-2.1904,-2.1905,-2.1964,-2.1965,-2.1907,-2.1916,-2.1916,-2.1934,-2.1931,-2.1928,-2.191,-2.1905,-2.1923,-2.1926,-2.1929,-2.2023,-2.1926,-2.193,-2.1931,-2.2122,-2.2126,-2.2129,0,0,0,0,0,0,-2.1902,-2.191,-2.1964,-2.1934,-2.194,-2.1921,-2.1941,-2.1936,-2.1945,-2.1931,-2.1927,-2.1924,-2.192,-2.1925,-2.1978,-2.2023,-2.1931,-2.1934,-2.2118,-2.2123,-2.2127,-2.2211,0,0,0,0,0,0,-2.19,-2.1909,-2.1939,-2.1935,-2.1941,-2.2012,-2.1943,-2.1938,-2.1951,-2.1944,-2.1943,-2.194,-2.1918,-2.1973,-2.1981,-2.2025,-2.1936,-2.2114,-2.212,-2.2126,-2.2204,-2.2218,-2.223,0,0,0,0,0,-2.1897,-2.1962,-2.1941,-2.1949,-2.1978,-2.2015,-2.2018,-2.1992,-2.1955,-2.1985,-2.1976,-2.194,-2.2017,-2.1979,-2.1987,-2.2033,-2.2111,-2.2118,-2.2125,-2.2198,-2.2216,-2.223,0,0,0,0,0,0,-2.1971,-2.1961,-2.1937,-2.2002,-2.201,-2.2003,-2.204,-2.2011,-2.2029,-2.2021,-2.1988,-2.1989,-2.2048,-2.2046,-2.2004,-2.2111,-2.2057,-2.2067,-2.211,-2.2126,-2.2139,-2.2138,-2.1939,0,0,0,0,0,-2.1995,-2.2026,-2.2015,-2.2073,-2.2078,-2.2059,-2.2074,-2.2053,-2.206,-2.2063,-2.2057,-2.2065,-2.2091,-2.2108,-2.2131,-2.2204,-2.2203,-2.224,-2.2253,-2.2264,-2.2272,-2.2311,-2.2328,-2.2153,-2.2153,-2.2153,0,0,-2.2044,-2.2043,-2.2064,-2.2088,-2.2092,-2.2124,-2.2062,-2.2099,-2.2123,-2.2068,-2.2118,-2.2115,-2.2121,-2.2185,-2.2212,-2.2185,-2.232,-2.2273,-2.2282,-2.2284,-2.2321,-2.2337,-2.2352,-2.2158,-2.2157,-2.2157,0,0,-2.2151,-2.2153,-2.2202,-2.2207,-2.2214,-2.2201,-2.2213,-2.2211,-2.2207,-2.2256,-2.2216,-2.2245,-2.229,-2.2296,-2.2305,-2.2418,-2.2385,-2.2426,-2.2494,-2.2533,-2.2546,-2.2558,-2.2599,-2.2614,-2.2434,-2.2435,-2.2435,0,-2.2211,-2.2259,-2.2231,-2.2271,-2.2284,-2.2237,-2.2287,-2.2293,-2.2307,-2.2317,-2.2286,-2.2343,-2.2343,-2.2408,-2.2436,-2.2445,-2.2458,-2.2425,-2.2547,-2.2558,-2.2569,-2.2607,-2.2623,-2.2439,-2.2439,-2.2438,-2.2438,0,-2.2334,-2.2368,-2.2407,-2.2422,-2.2439,-2.2484,-2.2463,-2.2484,-2.2462,-2.2453,-2.2505,-2.2505,-2.2527,-2.2541,-2.252,-2.2604,-2.2587,-2.2552,-2.2497,-2.2591,-2.2627,-2.2641,-2.2447,-2.2445,-2.2443,-2.2442,0,0,-2.2485,-2.2486,-2.2501,-2.2508,-2.2513,-2.2538,-2.2582,-2.2605,-2.2623,-2.2635,-2.2671,-2.2711,-2.268,-2.269,-2.267,-2.2704,-2.2794,-2.2665,-2.2665,-2.2689,-2.2887,-2.2914,-2.2931,-2.2773,-2.2776,-2.2778,-2.2887,0,-2.259,-2.2664,-2.2641,-2.2716,-2.2748,-2.2704,-2.2743,-2.275,-2.2743,-2.2769,-2.276,-2.279,-2.2745,-2.2752,-2.2784,-2.2776,-2.2833,-2.2768,-2.2807,-2.2808,-2.2806,-2.2949,-2.2977,-2.3079,-2.29,-2.2903,-2.2904,0,-2.2721,-2.2739,-2.2818,-2.2819,-2.2831,-2.2866,-2.2886,-2.2911,-2.2919,-2.2911,-2.2925,-2.2898,-2.2941,-2.2887,-2.2947,-2.2903,-2.2918,-2.2917,-2.292,-2.2922,-2.2862,-2.2956,-2.3111,-2.3127,-2.2926,-2.2924,-2.2923,0,-2.2825,-2.2868,-2.2921,-2.2929,-2.2931,-2.2957,-2.2959,-2.2964,-2.298,-2.2997,-2.3007,-2.303,-2.3042,-2.306,-2.3041,-2.3003,-2.3104,-2.3048,-2.3099,-2.31,-2.3122,-2.312,-2.3282,-2.3132,-2.3131,-2.3131,-2.3131,0,-2.2944,-2.2993,-2.2968,-2.3,-2.3055,-2.3029,-2.3084,-2.3082,-2.3087,-2.3119,-2.3083,-2.3113,-2.3086,-2.3114,-2.3099,-2.3151,-2.3157,-2.3152,-2.3148,-2.3156,-2.3156,-2.3164,-2.3157,-2.3135,-2.3134,-2.3133,-2.3133,0,-2.3068,-2.3053,-2.3107,-2.3106,-2.3107,-2.3148,-2.3146,-2.3177,-2.3168,-2.3209,-2.3217,-2.3203,-2.3234,-2.3217,-2.3249,-2.3239,-2.3307,-2.3293,-2.3305,-2.3301,-2.3353,-2.3349,-2.3525,-2.3548,-2.3383,-2.3385,-2.3386,0,-2.3144,-2.3182,-2.3185,-2.3204,-2.3209,-2.324,-2.3256,-2.3232,-2.3251,-2.3264,-2.3293,-2.3322,-2.3344,-2.3396,-2.3389,-2.3414,-2.34,-2.3461,-2.3404,-2.3411,-2.3402,-2.34,-2.3404,-2.3472,-2.3474,-2.3475,-2.3477,0,-2.3282,-2.3274,-2.3298,-2.3322,-2.3343,-2.336,-2.3374,-2.3391,-2.3368,-2.3391,-2.3423,-2.344,-2.3474,-2.3503,-2.3525,-2.3528,-2.3499,-2.3495,-2.3508,-2.3516,-2.3522,-2.352,-2.3336,-2.3491,-2.3489,-2.3488,-2.3487,-2.3487,-2.3385,-2.3417,-2.3425,-2.3454,-2.3463,-2.3477,-2.3506,-2.3502,-2.3528,-2.3554,-2.3539,-2.3577,-2.3586,-2.3612,-2.3619,-2.3649,-2.3625,-2.3644,-2.3649,-2.3654,-2.3661,-2.3518,-2.3653,-2.3652,-2.3652,-2.3652,-2.3651,0,-2.3521,-2.3525,-2.3552,-2.3574,-2.3598,-2.3569,-2.3584,-2.3605,-2.364,-2.3651,-2.3673,-2.3711,-2.374,-2.3736,-2.3763,-2.3788,-2.3775,-2.3795,-2.3793,-2.3794,-2.3681,-2.3667,-2.3805,-2.3805,-2.3805,-2.3805,-2.3805,-2.3805,-2.3595,-2.3648,-2.364,-2.3698,-2.37,-2.3738,-2.3749,-2.3763,-2.3771,-2.3816,-2.384,-2.3837,-2.3843,-2.387,-2.3895,-2.3893,-2.3905,-2.393,-2.3924,-2.3817,-2.3802,-2.3788,-2.3774,-2.3933,-2.3933,-2.4034,-2.4035,-2.4036]},{"header":{"parameterUnit":"m.s-1","parameterCategory":1,"la1":30.2991,"la2":30.254,"lo1":-89.0895,"lo2":-89.0444,"dy":0.0017,"dx":0.0017,"nx":28,"ny":28,"refTime":"2025-03-08T09:00:00:Z","depth":0,"parameterNumber":3,"parameterNumberName":"V-component_of_WINDS"},"data":[0,0,0,0,0,0,0,0,0,0,0,0,0,0,0,0,0,0,0,0,0,0,0,0,0,0,0,0,0,0,0,0,0,0,0,0,0,0,0,0,0,0,0,0,0,0,0,0,0,0,0,0,0,0,0,0,0,0,0.0542,0.0542,0,0.0563,0.0564,0.0564,0.0582,0.0582,0.0583,0.0583,0.0603,0.0604,0.0604,0,0,0,0,0,0,0,0,0,0,0,0,0,0.0515,0.0516,0.0542,0.0542,0.0542,0.0563,0.0564,0.0564,0.0582,0.0582,0.0583,0.0583,0.0603,0.0604,0.0604,0,0,0,0,0,0,0,0,0,0,0,0,0,0.0531,0.0516,0.0542,0.0554,0.0555,0.0563,0.0564,0.0564,0.0582,0.0582,0.0583,0.0583,0.0603,0.0604,0.0604,0.0601,0,0,0.0606,0.0606,0,0,0,0,0,0,0,0,0.053,0.0532,0.0552,0.0553,0.0555,0.057,0.0562,0.0576,0.0582,0.0572,0.0583,0.0583,0.0592,0.0594,0.0597,0.0602,0.0603,0.0606,0.0606,0.0606,0.0607,0,0,0,0,0,0,0,0.0529,0.0531,0.055,0.0552,0.0554,0.0558,0.0561,0.0565,0.058,0.0573,0.0574,0.0577,0.0593,0.0596,0.0597,0.0603,0.0606,0.0606,0.0607,0.0607,0.0609,0.0608,0,0,0,0,0,0,0.0526,0.053,0.0549,0.0551,0.0543,0.0558,0.0561,0.0565,0.058,0.0583,0.0576,0.0577,0.0595,0.0597,0.0598,0.0596,0.0606,0.0607,0.0607,0.0609,0.0608,0.0608,0,0,0,0,0,0,0.0525,0.0528,0.0549,0.0541,0.0544,0.0559,0.0563,0.0565,0.0569,0.0583,0.0585,0.0577,0.0596,0.0598,0.0601,0.0597,0.0607,0.0608,0.0609,0.0609,0.0608,0.0592,0,0,0,0,0,0,0.0525,0.0527,0.0526,0.0541,0.0544,0.0551,0.0562,0.0565,0.057,0.0571,0.0584,0.0586,0.0596,0.06,0.0601,0.0598,0.0608,0.061,0.0609,0.0608,0.0593,0.0591,0.0589,0,0,0,0,0,0.0524,0.052,0.0526,0.0528,0.0543,0.055,0.0552,0.0564,0.0569,0.0569,0.0578,0.0586,0.0598,0.06,0.0602,0.0599,0.061,0.0609,0.0609,0.0593,0.0591,0.0589,0,0,0,0,0,0,0.0504,0.0522,0.0529,0.053,0.0539,0.0554,0.0553,0.0561,0.0568,0.0569,0.0583,0.0585,0.0587,0.0593,0.0596,0.0597,0.0605,0.0605,0.0593,0.0591,0.0589,0.0587,0.0609,0,0,0,0,0,0.05,0.0505,0.052,0.052,0.0524,0.0538,0.0541,0.055,0.0559,0.0562,0.0571,0.058,0.0585,0.0588,0.0594,0.0594,0.0597,0.0593,0.0591,0.059,0.0589,0.059,0.0588,0.0606,0.0606,0.0606,0,0,0.0491,0.0502,0.0504,0.0516,0.0524,0.0528,0.054,0.0544,0.0547,0.0562,0.0566,0.0574,0.0584,0.0585,0.0586,0.0591,0.0585,0.0589,0.0588,0.0588,0.0589,0.0587,0.0586,0.0606,0.0606,0.0606,0,0,0.0478,0.0486,0.0487,0.0495,0.0507,0.0516,0.0516,0.053,0.0536,0.054,0.0552,0.0556,0.0565,0.0572,0.0577,0.0568,0.0576,0.057,0.056,0.0561,0.0559,0.0558,0.0555,0.0553,0.0569,0.0569,0.0569,0,0.0465,0.0472,0.0486,0.049,0.0495,0.051,0.0511,0.0518,0.0531,0.0534,0.0539,0.0551,0.0559,0.0563,0.0561,0.0564,0.0565,0.0567,0.0558,0.0557,0.0556,0.0553,0.0552,0.0568,0.0568,0.0568,0.0568,0,0.0456,0.0461,0.0461,0.0474,0.0479,0.0481,0.0495,0.0499,0.0508,0.0516,0.0521,0.0531,0.054,0.0542,0.0549,0.0547,0.0549,0.0556,0.0564,0.0554,0.0551,0.055,0.0567,0.0567,0.0567,0.0568,0,0,0.0429,0.0451,0.045,0.0457,0.0472,0.0476,0.0479,0.0488,0.0491,0.05,0.0503,0.0512,0.0519,0.0524,0.0533,0.0534,0.0526,0.0541,0.0541,0.0537,0.0524,0.0518,0.0516,0.0532,0.0532,0.0532,0.0523,0,0.0417,0.0424,0.0437,0.044,0.0445,0.046,0.0463,0.0473,0.0482,0.0487,0.0497,0.0503,0.0512,0.0515,0.0517,0.0527,0.0523,0.0528,0.0534,0.0534,0.053,0.0515,0.0508,0.0499,0.0522,0.0522,0.0521,0,0.0403,0.0412,0.0416,0.0431,0.0434,0.0436,0.0447,0.0452,0.0463,0.047,0.0477,0.0487,0.0492,0.05,0.0506,0.0509,0.0513,0.0518,0.0518,0.0518,0.0526,0.0514,0.0496,0.0494,0.052,0.052,0.052,0,0.0382,0.0395,0.0399,0.0404,0.0423,0.0424,0.0432,0.0444,0.0449,0.0458,0.0462,0.0471,0.0476,0.0482,0.0495,0.05,0.05,0.0509,0.0505,0.0505,0.0503,0.0503,0.0485,0.0507,0.0507,0.0507,0.0507,0,0.0367,0.0368,0.039,0.0392,0.0394,0.0411,0.0412,0.0421,0.0432,0.0437,0.0451,0.0454,0.0472,0.0477,0.0487,0.0491,0.0493,0.0498,0.0501,0.0496,0.0496,0.0498,0.0499,0.0507,0.0507,0.0507,0.0507,0,0.0343,0.0358,0.0363,0.0381,0.0386,0.0386,0.0402,0.0405,0.0416,0.0421,0.0423,0.044,0.0447,0.0461,0.0472,0.0479,0.048,0.0485,0.0477,0.0478,0.0473,0.0473,0.0455,0.0454,0.0478,0.0477,0.0477,0,0.0331,0.0333,0.0352,0.0356,0.0364,0.037,0.0376,0.0393,0.0398,0.0412,0.0413,0.0422,0.043,0.0442,0.0454,0.0463,0.0468,0.0462,0.0469,0.0465,0.0467,0.0467,0.0467,0.0459,0.0459,0.0458,0.0458,0,0.0309,0.0317,0.0325,0.0336,0.0343,0.0352,0.0362,0.0365,0.0383,0.0389,0.0397,0.0404,0.0416,0.0425,0.0436,0.0444,0.0454,0.0456,0.0456,0.045,0.0445,0.0448,0.0471,0.0456,0.0456,0.0456,0.0456,0.0457,0.029,0.0293,0.0307,0.0316,0.0325,0.0335,0.0339,0.0351,0.0358,0.037,0.038,0.0388,0.04,0.0417,0.0424,0.043,0.0435,0.0434,0.0434,0.0433,0.0431,0.0445,0.0433,0.0433,0.0433,0.0433,0.0433,0,0.0268,0.0279,0.0287,0.0301,0.0308,0.0319,0.0331,0.0336,0.0343,0.0355,0.0363,0.0373,0.0382,0.0396,0.0407,0.0409,0.0414,0.0411,0.041,0.0412,0.0427,0.0426,0.0407,0.0407,0.0407,0.0407,0.0407,0.0407,0.0258,0.0262,0.0272,0.0282,0.0293,0.0301,0.0307,0.0316,0.0326,0.0337,0.0345,0.0355,0.0367,0.0379,0.0388,0.0392,0.0394,0.039,0.0395,0.0408,0.0411,0.0413,0.0412,0.0391,0.0391,0.038,0.038,0.038]}]]